Hourly Weather Otolice

Today, 30 July, Friday

Time Temperature Precipitation Wind Pressure Humidity
00:00 +21°C° 0 mm 2 mps 750 mmHg 60%
01:00 +20°C° 0 mm 2 mps 750 mmHg 60%
02:00 +20°C° 0 mm 2 mps 750 mmHg 61%
03:00 +20°C° 0 mm 2 mps 750 mmHg 63%
04:00 +20°C° 0 mm 2 mps 750 mmHg 64%
05:00 +20°C° 0 mm 2 mps 750 mmHg 64%
06:00 +20°C° 0 mm 2 mps 750 mmHg 65%
07:00 +21°C° 0 mm 3 mps 750 mmHg 65%
08:00 +22°C° 0 mm 4 mps 750 mmHg 60%
09:00 +23°C° 0 mm 5 mps 750 mmHg 54%
10:00 +24°C° 0 mm 6 mps 750 mmHg 48%
11:00 +26°C° 0 mm 6 mps 750 mmHg 46%
12:00 +27°C° 0 mm 6 mps 750 mmHg 44%
13:00 +27°C° 0 mm 6 mps 749 mmHg 42%
14:00 +27°C° 0 mm 6 mps 749 mmHg 44%
15:00 +27°C° 0 mm 5 mps 749 mmHg 46%
16:00 +27°C° 0 mm 4 mps 748 mmHg 48%
17:00 +26°C° 0 mm 4 mps 748 mmHg 52%
18:00 +25°C° 0 mm 3 mps 748 mmHg 57%
19:00 +24°C° 0 mm 2 mps 748 mmHg 61%
20:00 +23°C° 0 mm 2 mps 748 mmHg 62%
21:00 +21°C° 0 mm 2 mps 748 mmHg 63%
22:00 +20°C° 0 mm 2 mps 749 mmHg 64%
23:00 +20°C° 0 mm 2 mps 749 mmHg 65%

Tomorrow, 31 July, Saturday

Time Temperature Precipitation Wind Pressure Humidity
00:00 +20°C° 0 mm 1 mps 748 mmHg 66%
01:00 +19°C° 0 mm 1 mps 748 mmHg 67%
02:00 +19°C° 0 mm 1 mps 748 mmHg 67%
03:00 +19°C° 0 mm 1 mps 748 mmHg 67%
04:00 +19°C° 0 mm 1 mps 748 mmHg 68%
05:00 +20°C° 0 mm 1 mps 748 mmHg 65%
06:00 +22°C° 0 mm 1 mps 748 mmHg 62%
07:00 +24°C° 0 mm 2 mps 748 mmHg 59%
08:00 +25°C° 0 mm 2 mps 748 mmHg 55%
09:00 +27°C° 0 mm 3 mps 748 mmHg 50%
10:00 +29°C° 0 mm 3 mps 747 mmHg 46%
11:00 +29°C° 0 mm 3 mps 747 mmHg 48%
12:00 +29°C° 0 mm 4 mps 747 mmHg 49%
13:00 +29°C° 0 mm 4 mps 747 mmHg 51%
14:00 +28°C° 0 mm 4 mps 747 mmHg 52%
15:00 +28°C° 0 mm 5 mps 747 mmHg 54%
16:00 +27°C° 0 mm 5 mps 747 mmHg 55%
17:00 +26°C° 0 mm 4 mps 747 mmHg 58%
18:00 +25°C° 0 mm 4 mps 747 mmHg 61%
19:00 +22°C° 0 mm 3 mps 747 mmHg 64%
20:00 +21°C° 0 mm 3 mps 747 mmHg 63%
21:00 +20°C° 0 mm 3 mps 748 mmHg 63%
22:00 +19°C° 0 mm 3 mps 748 mmHg 63%
23:00 +19°C° 0 mm 3 mps 748 mmHg 63%

Day after tomorrow, 1 August, Sunday

Time Temperature Precipitation Wind Pressure Humidity
00:00 +18°C° 0 mm 3 mps 748 mmHg 63%
01:00 +17°C° 0 mm 3 mps 748 mmHg 63%
02:00 +17°C° 0 mm 3 mps 749 mmHg 64%
03:00 +16°C° 0 mm 3 mps 749 mmHg 66%
04:00 +16°C° 0 mm 3 mps 749 mmHg 67%
05:00 +17°C° 0 mm 2 mps 749 mmHg 65%
06:00 +19°C° 0 mm 2 mps 749 mmHg 63%
07:00 +20°C° 0 mm 2 mps 749 mmHg 60%
08:00 +21°C° 0 mm 2 mps 749 mmHg 57%
09:00 +23°C° 0 mm 2 mps 749 mmHg 54%
10:00 +24°C° 0 mm 2 mps 749 mmHg 51%
11:00 +21°C° 0.3 mm 2 mps 749 mmHg 62%
12:00 +20°C° 0.3 mm 3 mps 749 mmHg 73%
13:00 +18°C° 0.3 mm 3 mps 749 mmHg 84%
14:00 +17°C° 0.4 mm 3 mps 749 mmHg 87%
15:00 +17°C° 0.4 mm 2 mps 749 mmHg 90%
16:00 +16°C° 0.4 mm 2 mps 749 mmHg 93%
17:00 +16°C° 0 mm 2 mps 749 mmHg 91%
18:00 +16°C° 0 mm 2 mps 749 mmHg 89%
19:00 +16°C° 0 mm 1 mps 749 mmHg 88%
20:00 +16°C° 0 mm 1 mps 749 mmHg 88%
21:00 +16°C° 0 mm 1 mps 749 mmHg 88%
22:00 +15°C° 0 mm 1 mps 749 mmHg 89%
23:00 +15°C° 0 mm 1 mps 749 mmHg 88%

2 August, Monday

Time Temperature Precipitation Wind Pressure Humidity
00:00 +15°C° 0 mm 2 mps 749 mmHg 88%
01:00 +16°C° 0 mm 2 mps 748 mmHg 88%
02:00 +15°C° 0 mm 2 mps 748 mmHg 90%
03:00 +15°C° 0 mm 2 mps 748 mmHg 91%
04:00 +15°C° 0 mm 2 mps 748 mmHg 92%
05:00 +16°C° 0 mm 3 mps 748 mmHg 88%
06:00 +17°C° 0 mm 3 mps 749 mmHg 83%
07:00 +18°C° 0 mm 4 mps 749 mmHg 79%
08:00 +20°C° 0.1 mm 4 mps 749 mmHg 72%
09:00 +21°C° 0.1 mm 4 mps 749 mmHg 65%
10:00 +23°C° 0.1 mm 5 mps 749 mmHg 58%
11:00 +23°C° 0.2 mm 5 mps 749 mmHg 55%
12:00 +25°C° 0.2 mm 5 mps 749 mmHg 51%
13:00 +25°C° 0.2 mm 5 mps 749 mmHg 48%
14:00 +23°C° 0.1 mm 5 mps 749 mmHg 53%
15:00 +22°C° 0.1 mm 5 mps 750 mmHg 58%
16:00 +21°C° 0.1 mm 4 mps 750 mmHg 62%
17:00 +21°C° 0.4 mm 4 mps 750 mmHg 67%
18:00 +20°C° 0.4 mm 3 mps 750 mmHg 72%
19:00 +19°C° 0.4 mm 3 mps 750 mmHg 76%
20:00 +18°C° 0 mm 3 mps 751 mmHg 76%
21:00 +17°C° 0 mm 3 mps 751 mmHg 77%
22:00 +17°C° 0 mm 3 mps 752 mmHg 77%
23:00 +17°C° 0 mm 3 mps 752 mmHg 76%

3 August, Tuesday

Time Temperature Precipitation Wind Pressure Humidity
00:00 +17°C° 0 mm 3 mps 752 mmHg 76%
01:00 +16°C° 0 mm 3 mps 753 mmHg 75%
02:00 +16°C° 0 mm 3 mps 753 mmHg 76%
03:00 +16°C° 0 mm 3 mps 753 mmHg 77%
04:00 +14°C° 0 mm 3 mps 753 mmHg 78%
05:00 +16°C° 0 mm 3 mps 753 mmHg 74%
06:00 +17°C° 0 mm 4 mps 754 mmHg 71%
07:00 +18°C° 0 mm 4 mps 754 mmHg 67%
08:00 +19°C° 0 mm 4 mps 754 mmHg 61%
09:00 +21°C° 0 mm 4 mps 754 mmHg 54%
10:00 +22°C° 0 mm 4 mps 754 mmHg 48%
11:00 +23°C° 0 mm 4 mps 754 mmHg 45%
12:00 +23°C° 0 mm 4 mps 754 mmHg 43%
13:00 +25°C° 0 mm 4 mps 754 mmHg 40%
14:00 +25°C° 0 mm 4 mps 754 mmHg 41%
15:00 +25°C° 0 mm 3 mps 754 mmHg 41%
16:00 +25°C° 0 mm 3 mps 753 mmHg 41%
17:00 +24°C° 0 mm 2 mps 753 mmHg 46%
18:00 +23°C° 0 mm 2 mps 753 mmHg 50%
19:00 +22°C° 0 mm 1 mps 753 mmHg 55%
20:00 +21°C° 0 mm 1 mps 753 mmHg 55%
21:00 +20°C° 0 mm 2 mps 753 mmHg 55%
22:00 +19°C° 0 mm 2 mps 753 mmHg 55%
23:00 +19°C° 0 mm 2 mps 753 mmHg 56%

4 August, Wednesday

Time Temperature Precipitation Wind Pressure Humidity
00:00 +18°C° 0 mm 2 mps 753 mmHg 57%
01:00 +18°C° 0 mm 3 mps 753 mmHg 59%
02:00 +18°C° 0 mm 2 mps 753 mmHg 61%
03:00 +17°C° 0 mm 2 mps 753 mmHg 64%
04:00 +17°C° 0 mm 2 mps 753 mmHg 67%
05:00 +17°C° 0.1 mm 2 mps 753 mmHg 70%
06:00 +17°C° 0.1 mm 2 mps 753 mmHg 73%
07:00 +17°C° 0.1 mm 2 mps 753 mmHg 75%
08:00 +17°C° 0.3 mm 2 mps 753 mmHg 77%
09:00 +17°C° 0.3 mm 3 mps 753 mmHg 79%
10:00 +17°C° 0.3 mm 3 mps 753 mmHg 80%
11:00 +17°C° 1.2 mm 3 mps 753 mmHg 84%
12:00 +16°C° 1.2 mm 3 mps 753 mmHg 89%
13:00 +16°C° 1.2 mm 3 mps 753 mmHg 93%
14:00 +16°C° 0.4 mm 3 mps 753 mmHg 90%
15:00 +17°C° 0.4 mm 2 mps 753 mmHg 88%
16:00 +19°C° 0.4 mm 1 mps 753 mmHg 86%
17:00 +18°C° 0 mm 1 mps 753 mmHg 87%
18:00 +18°C° 0 mm 1 mps 753 mmHg 87%
19:00 +18°C° 0 mm 1 mps 753 mmHg 88%
20:00 +16°C° 0 mm 1 mps 753 mmHg 90%
21:00 +16°C° 0 mm 1 mps 753 mmHg 91%
22:00 +14°C° 0 mm 0 mps 753 mmHg 92%
23:00 +14°C° 0 mm 0 mps 753 mmHg 93%
Show more